STARLINK-3090, 49132

Orbit data source: Space-Track

STARLINK-3090, 49132 is a payload satellite owned by SpaceX/Seattle (US) in LEO that was launched on Tue, 14 Sep 2021 UTC via an FALCON 9 launch vehicle from the Air Force Western Test Range (AFWTR). Payload-class satellites include a variety of spacecraft equipped with specific instruments for various scientific and technological missions. These include communications satellites like Starlink; space stations such as the ISS; scientific satellites like the Hubble; Earth observation satellites from companies like Planet Labs, Umbra, and HawkEye 360; GPS; miniature CubeSats for education and research; and military/defense satellites.

Loading next visibility...
Identifier
49132, 2021-082C
Orbit
LEO
Country
Flag of USUS
Related business
Manufacturer
SpaceX/Seattle
Mission
Operational Commercial Communications
Bus & Motor
STARLINK, Unknown motor
Mass
297 kg wet, ~275 kg dry
Launch date (UTC)
2021-09-14 (4 years ago)
Launch vehicle
FALCON 9
Launch site
Air Force Western Test Range (AFWTR)
Object type
Payload
Rocket body
Debris
Shape & HBR
Box + 1 Pan, 10.1 m
Radar Cross Section
13.562 m², Large (>1 m²)

Expand to show TLE details & history
Last TLE update: 15 hours ago

TLE from 15 hours ago
0 STARLINK-3090
1 49132U 21082C   25286.43311073 -.00000060  00000-0  27388-5 0  9997
2 49132  69.9981 305.6146 0003023 271.0182  89.0631 14.98331694223920
Epoch: 2025-10-13T10:23Z
TLE epoch observation values (Epoch: 2025-10-13T10:23:40.767Z)
Latitude
0.00003°
Longitude
127.45879°
Altitude
574.441 km
Speed
7.574 km/s
True Right ascension
20h 22m 27s
True Declination
0° 00' 00"
Sunlit
Object was in daylight at epoch
Visualization orbit readout
Latitude
Unknown
Longitude
Unknown
Altitude
Unknown
Speed
Unknown
Apparent Right ascension
Unknown
Apparent Declination
Unknown
Sunlit
N/A
Visualization observer readout
Local Sidereal Time
19:54:01
Azimuth
Unknown
Elevation
Unknown
Doppler factor
Unknown
Orbital elements
Apogee altitude
572.1 km
Perigee altitude
567.899 km
Semi-major axis
6,948.136 km
Eccentricity
0.0003
Inclination
69.9981°
RAAN
305.6146°
Arg. of periapsis
271.0182°
True anomaly
89.09774°
Mean anomaly
89.0631°
Eccentric anomaly
89.08042°
Mean motion
3.74749 °/min
Orbital period
96.06 mins
BSTAR
0.0000027388
Loading maneuver chart data...
Computing Atmospheric mass density...
Loading historical data...
Loading historical data...
Loading historical data...
Loading historical data...
Loading historical data...
Loading historical data...
Loading historical data...

Documentation

Showing up to 5 results
|